[[{"header":{"parameterUnit":"m.s-1","parameterCategory":1,"la1":30.2992,"la2":30.254,"lo1":-89.0895,"lo2":-89.0443,"dy":0.0025,"dx":0.0025,"nx":19,"ny":19,"refTime":"2026-05-06T09:00:00:Z","depth":0,"parameterNumber":2,"parameterNumberName":"U-component_of_WINDS"},"data":[0,0,0,-2.3859,-2.386,-2.3941,-2.3941,-2.4043,-2.4044,0,0,0,0,0,0,0,0,0,0,0,-2.3834,-2.3835,-2.3859,-2.3861,-2.3941,-2.3942,-2.4043,-2.4044,0,0,0,0,0,0,0,0,0,0,0,-2.3834,-2.3835,-2.3836,-2.3861,-2.3941,-2.3942,-2.4043,-2.3983,0,0,0,0,0,0,0,0,0,0,-2.3904,-2.3881,-2.3835,-2.3836,-2.3861,-2.3941,-2.3942,-2.398,-2.3986,-2.4006,0,-2.4024,0,-2.4036,-2.4051,-2.4051,0,0,0,-2.3861,-2.3876,-2.3898,-2.3836,-2.3862,-2.3941,-2.3905,-2.3983,-2.3991,-2.4015,-2.4026,-2.403,-2.4038,-2.4052,-2.4052,-2.4168,-2.4169,0,0,-2.3856,-2.3848,-2.3893,-2.3903,-2.3891,-2.3902,-2.3907,-2.3988,-2.3999,-2.4026,-2.4032,-2.4039,-2.4052,-2.4053,-2.4168,-2.4169,0,0,0,-2.3843,-2.3845,-2.3866,-2.3899,-2.3913,-2.3905,-2.391,-2.3995,-2.4003,-2.4033,-2.4041,-2.4053,-2.4054,-2.4167,-2.4168,-2.4186,0,0,0,-2.3841,-2.3838,-2.3864,-2.386,-2.3912,-2.3955,-2.3916,-2.3997,-2.4006,-2.404,-2.4053,-2.4055,-2.4167,-2.4168,-2.4185,-2.4196,0,0,0,-2.3829,-2.3836,-2.3848,-2.3859,-2.3893,-2.3954,-2.3966,-2.3999,-2.4011,-2.4052,-2.4056,-2.4166,-2.4168,-2.4183,-2.4194,-2.4224,0,0,0,-2.3814,-2.3863,-2.3848,-2.3905,-2.3893,-2.3965,-2.3966,-2.402,-2.4057,-2.4054,-2.4167,-2.4168,-2.4183,-2.4192,-2.4222,-2.4248,-2.4258,0,0,-2.3871,-2.3869,-2.3904,-2.3893,-2.3966,-2.3954,-2.403,-2.4071,-2.4082,-2.4139,-2.4142,-2.4185,-2.4193,-2.4224,-2.4319,-2.4326,0,0,0,-2.3919,-2.3943,-2.3965,-2.4,-2.4033,-2.4062,-2.4093,-2.4108,-2.4157,-2.411,-2.4205,-2.421,-2.4228,-2.4241,-2.4248,-2.4264,-2.4174,-2.4174,-2.4173,-2.3987,-2.3999,-2.4057,-2.4078,-2.4113,-2.4144,-2.4173,-2.4199,-2.4201,-2.4223,-2.424,-2.4296,-2.431,-2.4315,-2.4332,-2.4255,-2.4255,-2.4255,-2.4255,-2.4071,-2.4107,-2.4109,-2.4165,-2.4178,-2.4225,-2.4258,-2.4258,-2.4303,-2.4284,-2.4301,-2.4278,-2.4324,-2.4339,-2.4257,-2.4256,-2.4256,-2.4256,-2.4256,-2.4116,-2.4136,-2.4154,-2.4206,-2.4245,-2.4266,-2.431,-2.432,-2.4329,-2.4346,-2.4364,-2.4364,-2.4364,-2.4354,-2.4354,-2.4355,-2.4355,-2.4355,-2.4355,-2.4156,-2.4176,-2.4212,-2.4252,-2.4276,-2.4309,-2.4341,-2.4365,-2.4394,-2.4398,-2.4398,-2.4397,-2.4326,-2.4308,-2.4358,-2.4358,-2.4357,-2.4357,-2.4357,-2.4235,-2.4219,-2.4274,-2.4298,-2.4346,-2.4384,-2.4396,-2.4444,-2.4466,-2.4487,-2.4483,-2.4429,-2.4428,-2.4423,-2.4407,-2.4481,-2.4481,-2.4481,-2.4481,-2.4273,-2.4273,-2.4333,-2.437,-2.4409,-2.4426,-2.4488,-2.4514,-2.4538,-2.4552,-2.4543,-2.4524,-2.4518,-2.4521,-2.4513,-2.4499,-2.4594,-2.4594,-2.4594,-2.4322,-2.4327,-2.4378,-2.4402,-2.444,-2.4472,-2.4531,-2.4574,-2.4599,-2.4599,-2.4563,-2.4558,-2.4528,-2.4517,-2.4515,-2.4504,-2.4478,0,0]},{"header":{"parameterUnit":"m.s-1","parameterCategory":1,"la1":30.2992,"la2":30.254,"lo1":-89.0895,"lo2":-89.0443,"dy":0.0025,"dx":0.0025,"nx":19,"ny":19,"refTime":"2026-05-06T09:00:00:Z","depth":0,"parameterNumber":3,"parameterNumberName":"V-component_of_WINDS"},"data":[0,0,0,5.6607,5.6609,5.6701,5.6701,5.6829,5.6831,0,0,0,0,0,0,0,0,0,0,0,5.6589,5.659,5.6607,5.6609,5.6701,5.6701,5.6829,5.6831,0,0,0,0,0,0,0,0,0,0,0,5.6588,5.659,5.6592,5.661,5.6701,5.6701,5.6829,5.6755,0,0,0,0,0,0,0,0,0,0,5.6664,5.6657,5.659,5.6592,5.661,5.6701,5.6701,5.6751,5.676,5.6793,0,5.6828,0,5.6832,5.684,5.6841,0,0,0,5.6601,5.665,5.6667,5.6592,5.6611,5.6701,5.6657,5.6756,5.6765,5.6805,5.683,5.6835,5.6834,5.6841,5.6842,5.707,5.7071,0,0,5.6596,5.661,5.6661,5.6674,5.6664,5.6654,5.666,5.6761,5.6789,5.6831,5.6837,5.6836,5.6842,5.6843,5.7069,5.707,0,0,0,5.6587,5.6607,5.662,5.6669,5.6685,5.6657,5.6664,5.6784,5.6788,5.6839,5.6838,5.6843,5.6845,5.7067,5.7069,5.7155,0,0,0,5.6584,5.6601,5.6619,5.6628,5.6683,5.6736,5.6685,5.6781,5.6792,5.6837,5.6843,5.6846,5.7065,5.7068,5.7149,5.7192,0,0,0,5.658,5.6601,5.6618,5.6628,5.6669,5.6734,5.6744,5.6783,5.6792,5.6841,5.6846,5.7064,5.7068,5.7144,5.7184,5.7257,0,0,0,5.6579,5.6691,5.6619,5.6744,5.6668,5.6788,5.6743,5.683,5.6882,5.6844,5.7066,5.7069,5.7142,5.7179,5.7252,5.7321,5.7352,0,0,5.6727,5.6709,5.6781,5.672,5.6856,5.6773,5.692,5.6953,5.6944,5.7028,5.7033,5.7151,5.7183,5.7256,5.7517,5.7542,0,0,0,5.6833,5.6885,5.6918,5.697,5.7,5.7029,5.7039,5.7051,5.7122,5.6991,5.7197,5.7215,5.7257,5.729,5.731,5.7345,5.7085,5.7084,5.7084,5.7061,5.7046,5.7164,5.716,5.7211,5.7221,5.726,5.7278,5.7245,5.7294,5.7318,5.748,5.7518,5.7534,5.757,5.7354,5.7354,5.7355,5.7355,5.7277,5.7349,5.7305,5.7405,5.7387,5.7468,5.7482,5.7456,5.7528,5.7459,5.7495,5.7421,5.7561,5.7592,5.7361,5.736,5.7359,5.7359,5.7358,5.7425,5.7457,5.7472,5.7547,5.7605,5.7595,5.7668,5.7648,5.7629,5.7665,5.7689,5.7688,5.7683,5.7678,5.7679,5.7679,5.768,5.768,5.7681,5.7573,5.7587,5.7653,5.7695,5.7727,5.7765,5.7776,5.7805,5.7832,5.7811,5.7812,5.7774,5.7578,5.7529,5.7689,5.7688,5.7687,5.7686,5.7685,5.7797,5.7744,5.7845,5.7876,5.7925,5.7984,5.7958,5.802,5.804,5.8077,5.8032,5.789,5.7869,5.7852,5.7812,5.8035,5.8035,5.8035,5.8035,5.7922,5.7911,5.8009,5.8061,5.811,5.8097,5.8209,5.8219,5.822,5.8231,5.8196,5.8141,5.8125,5.8113,5.809,5.8052,5.8332,5.8332,5.8332,5.8059,5.8052,5.8152,5.8156,5.8192,5.8223,5.8328,5.8387,5.8376,5.8344,5.824,5.8227,5.8137,5.8109,5.8074,5.804,5.7969,0,0]}]]